Fort Polk, LA

10:29 AM CDT on October 17, 2019 (GMT -0500)
Fort Polk

Weather History for KAQV - August, 2019

Change the Weather History Date:

Monday, August 19, 2019

  Actual Average (KPOE) Record (KPOE)
Temperature  
Mean Temperature 86 °F -  
Max Temperature 100 °F 89 °F 104 °F (1999)
Min Temperature 73 °F 71 °F 66 °F (2013)
Cooling Degree Days 20    
Growing Degree Days 36 (Base 50)    
Moisture  
Dew Point 74 °F    
Average Humidity 81    
Maximum Humidity 96    
Minimum Humidity 40    
Precipitation  
Precipitation 0.35 in - - ()
Sea Level Pressure  
Sea Level Pressure 29.99 in    
Wind  
Wind Speed 1 mph (East)    
Max Wind Speed 9 mph    
Max Gust Speed 23 mph    
Visibility 7 miles    
Events Rain , Thunderstorm    
Averages and records for this station are not official NWS values.
T = Trace of Precipitation, MM = Missing Value Source: NWS Daily Summary

Daily Weather History Graph

Daily Weather History Graph

Search for Another Location

Airport or City:

Astronomy

Aug. 19, 2019 Rise Set
Actual Time 6:41 AM CDT 7:52 PM CDT
Civil Twilight 6:15 AM CDT 8:17 PM CDT
Nautical Twilight 5:45 AM CDT 8:47 PM CDT
Astronomical Twilight 5:14 AM CDT 9:18 PM CDT
Moon 10:28 PM CDT (8/19) 10:10 AM CDT (8/19)
Length of Visible Light 14h 01m
Length of Day
13h 11m
Waning Gibbous, 85% of the Moon is Illuminated
Aug 19
Waning Gibbous
Aug 23
Last Quarter
Aug 30
New
Sep 5
First Quarter
Sep 13
Full

Hourly Weather History & Observations

Time (CDT) Temp. Heat Index Dew Point Humidity Pressure Visibility Wind Dir Wind Speed Gust Speed Precip Events Conditions
12:56 AM 75.0 °F - 73.0 °F 94% 29.95 in 10.0 mi Calm Calm - N/A   Clear
1:56 AM 75.0 °F - 73.0 °F 94% 29.96 in 9.0 mi Calm Calm - N/A   Clear
3:56 AM 73.9 °F - 72.0 °F 93% 29.96 in 7.0 mi Calm Calm - N/A   Clear
4:56 AM 73.9 °F - 72.0 °F 93% 29.97 in 7.0 mi Calm Calm - N/A   Clear
5:28 AM 73.9 °F - 72.0 °F 93% 29.98 in 7.0 mi Calm Calm - N/A   Mostly Cloudy
5:56 AM 73.9 °F - 72.0 °F 93% 29.98 in 8.0 mi Calm Calm - N/A   Scattered Clouds
6:49 AM 73.9 °F - 72.0 °F 93% 30.01 in 5.0 mi Calm Calm - N/A   Mostly Cloudy
6:56 AM 73.9 °F - 72.0 °F 93% 30.00 in 3.0 mi Calm Calm - N/A   Mostly Cloudy
7:14 AM 75.0 °F - 73.0 °F 94% 30.01 in 3.0 mi Calm Calm - N/A   Overcast
7:19 AM 75.0 °F - 73.0 °F 94% 30.01 in 1.8 mi Calm Calm - N/A   Overcast
7:27 AM 75.0 °F - 73.0 °F 94% 30.01 in 2.5 mi Calm Calm - N/A   Overcast
7:29 AM 75.0 °F - 73.0 °F 94% 30.01 in 3.0 mi Calm Calm - N/A   Overcast
7:56 AM 78.1 °F - 75.0 °F 90% 30.00 in 8.0 mi Calm Calm - N/A   Scattered Clouds
8:56 AM 84.0 °F 93.7 °F 77.0 °F 79% 30.01 in 10.0 mi Variable 4.6 mph - N/A   Clear
9:56 AM 88.0 °F 98.5 °F 75.9 °F 67% 30.01 in 10.0 mi Variable 4.6 mph - N/A   Clear
10:56 AM 87.1 °F 95.4 °F 73.9 °F 65% 30.01 in 10.0 mi Calm Calm - N/A   Mostly Cloudy
11:06 AM 89.1 °F 97.0 °F 73.0 °F 59% 30.02 in 10.0 mi Variable 3.5 mph - N/A   Mostly Cloudy
11:56 AM 90.0 °F 97.9 °F 73.0 °F 57% 30.01 in 10.0 mi Variable 3.5 mph - N/A   Mostly Cloudy
12:56 PM 93.0 °F 100.7 °F 72.0 °F 50% 29.99 in 10.0 mi Variable 3.5 mph - N/A   Scattered Clouds
1:56 PM 98.1 °F 105.0 °F 70.0 °F 40% 29.96 in 10.0 mi Variable 5.8 mph - N/A   Scattered Clouds
2:56 PM 96.1 °F 102.9 °F 70.0 °F 43% 29.95 in 10.0 mi NE 3.5 mph - N/A   Overcast
3:56 PM 95.0 °F 100.7 °F 69.1 °F 43% 29.93 in 10.0 mi NE 3.5 mph - N/A   Mostly Cloudy
4:56 PM 89.1 °F 99.1 °F 75.0 °F 63% 29.94 in 10.0 mi South 9.2 mph - N/A   Overcast
5:31 PM 84.9 °F 96.6 °F 78.1 °F 80% 29.96 in 1.5 mi SSW 8.1 mph 23.0 mph 0.09 in Rain Heavy Rain
5:42 PM 82.0 °F 91.0 °F 78.1 °F 88% 29.97 in 3.0 mi Calm Calm - 0.11 in Rain Light Rain
5:56 PM 81.0 °F 88.6 °F 78.1 °F 91% 29.96 in 10.0 mi Calm Calm - 0.11 in   Scattered Clouds
6:56 PM 82.9 °F 91.8 °F 77.0 °F 82% 29.96 in 10.0 mi Calm Calm - N/A   Clear
7:56 PM 81.0 °F 87.9 °F 77.0 °F 88% 29.96 in 10.0 mi Calm Calm - N/A   Partly Cloudy
8:56 PM 80.1 °F 85.1 °F 75.0 °F 85% 29.99 in 10.0 mi Calm Calm - N/A   Scattered Clouds
9:21 PM 80.1 °F 85.1 °F 75.0 °F 85% 30.03 in 10.0 mi ENE 5.8 mph - N/A Thunderstorm Thunderstorm
9:42 PM 75.9 °F - 73.0 °F 91% 30.01 in 1.2 mi Variable 4.6 mph 16.1 mph 0.19 in Rain , Thunderstorm Heavy Thunderstorms and Rain
9:51 PM 75.2 °F - 73.4 °F 94% 30.01 in 2.0 mi Variable 3.5 mph - 0.24 in Rain , Thunderstorm Thunderstorms and Rain
9:56 PM 75.9 °F - 73.9 °F 94% 30.00 in 6.0 mi Variable 3.5 mph - 0.24 in Rain Light Rain
10:56 PM 75.9 °F - 73.9 °F 94% 30.01 in 7.0 mi Calm Calm - 0.00 in   Clear
11:56 PM 75.0 °F - 73.9 °F 96% 30.00 in 6.0 mi Calm Calm - N/A   Clear